SBI3707 UUDD-LSGG

Flight info

Callsign SBI3707
Flight time 3h 6m
Altitude 36000
Route POKAG4Q POKAG N858 VEPIS Y219 LAPKI N869 GORAT N869 TOMTI DCT GOLOP DCT OKG N869 BENOT
Aircraft A320/M-SDE3FGHIRWY/LB1

Departure

Time 2026-05-01 11:07
Airport Domodedovo International Airport (UUDD)

Arrival

Time 2026-05-01 14:13
Airport Geneva International Airport (LSGG)
Time Latitude Longitude Altitude Speed Heading
2026-05-01 10:36 55.41510 37.90641 581 ft 0 kts 37°
2026-05-01 10:55 55.41509 37.90639 577 ft 1 kts 37°
2026-05-01 10:56 55.41495 37.90620 580 ft 3 kts 46°
2026-05-01 10:56 55.41483 37.90593 577 ft 3 kts 69°
2026-05-01 10:56 55.41480 37.90562 576 ft 3 kts 112°
2026-05-01 10:56 55.41484 37.90546 579 ft 1 kts 127°
2026-05-01 10:57 55.41485 37.90543 579 ft 0 kts 127°
2026-05-01 10:58 55.41485 37.90544 579 ft 1 kts 127°
2026-05-01 10:58 55.41469 37.90581 577 ft 5 kts 127°
2026-05-01 10:59 55.41450 37.90626 576 ft 5 kts 127°
2026-05-01 10:59 55.41424 37.90686 576 ft 6 kts 127°
2026-05-01 10:59 55.41403 37.90735 576 ft 4 kts 127°
2026-05-01 10:59 55.41381 37.90786 575 ft 6 kts 127°
2026-05-01 11:00 55.41347 37.90865 575 ft 9 kts 129°
2026-05-01 11:00 55.41287 37.90926 575 ft 12 kts 175°
2026-05-01 11:00 55.41224 37.90823 568 ft 14 kts 236°
2026-05-01 11:00 55.41161 37.90659 571 ft 18 kts 236°
2026-05-01 11:01 55.41105 37.90513 570 ft 9 kts 235°
2026-05-01 11:01 55.41067 37.90417 567 ft 11 kts 236°
2026-05-01 11:01 55.41041 37.90284 569 ft 12 kts 269°
2026-05-01 11:01 55.41009 37.90138 569 ft 14 kts 236°
2026-05-01 11:02 55.40951 37.89989 570 ft 15 kts 235°
2026-05-01 11:02 55.40887 37.89823 567 ft 17 kts 235°
2026-05-01 11:02 55.40822 37.89659 575 ft 13 kts 236°
2026-05-01 11:02 55.40755 37.89571 568 ft 13 kts 227°
2026-05-01 11:03 55.40703 37.89464 570 ft 8 kts 238°
2026-05-01 11:03 55.40670 37.89376 568 ft 10 kts 222°
2026-05-01 11:03 55.40601 37.89392 567 ft 12 kts 147°
2026-05-01 11:03 55.40524 37.89482 569 ft 15 kts 146°
2026-05-01 11:04 55.40428 37.89597 570 ft 18 kts 143°
2026-05-01 11:04 55.40314 37.89740 565 ft 22 kts 145°
2026-05-01 11:04 55.40192 37.89882 563 ft 15 kts 146°
2026-05-01 11:04 55.40113 37.89976 560 ft 11 kts 148°
2026-05-01 11:05 55.40053 37.89936 563 ft 11 kts 257°
2026-05-01 11:05 55.40081 37.89805 558 ft 12 kts 295°
2026-05-01 11:05 55.40129 37.89659 563 ft 14 kts 306°
2026-05-01 11:05 55.40194 37.89526 568 ft 15 kts 317°
2026-05-01 11:06 55.40283 37.89409 569 ft 18 kts 327°
2026-05-01 11:06 55.40526 37.89118 569 ft 76 kts 326°
2026-05-01 11:06 55.41127 37.88396 579 ft 131 kts 325°
2026-05-01 11:07 55.42831 37.86311 1592 ft 151 kts 318°
2026-05-01 11:07 55.43572 37.84921 2082 ft 165 kts 311°
2026-05-01 11:07 55.44353 37.83239 2435 ft 189 kts 310°
2026-05-01 11:07 55.45214 37.81378 3057 ft 199 kts 310°
2026-05-01 11:08 55.46051 37.79407 3755 ft 205 kts 296°
2026-05-01 11:08 55.46224 37.76921 3986 ft 214 kts 255°
2026-05-01 11:08 55.44489 37.72125 5169 ft 240 kts 236°
2026-05-01 11:09 55.43582 37.69582 5777 ft 253 kts 250°
2026-05-01 11:09 55.43252 37.66529 6417 ft 261 kts 266°
2026-05-01 11:09 55.43080 37.63327 7246 ft 264 kts 266°
2026-05-01 11:10 55.42718 37.56772 8931 ft 271 kts 266°
2026-05-01 11:10 55.42535 37.53505 9750 ft 274 kts 266°
2026-05-01 11:10 55.42347 37.50114 10472 ft 281 kts 266°
2026-05-01 11:10 55.42147 37.46552 10847 ft 299 kts 266°
2026-05-01 11:11 55.41940 37.42906 11494 ft 305 kts 266°
2026-05-01 11:11 55.41726 37.39168 12206 ft 310 kts 266°
2026-05-01 11:11 55.41505 37.35354 12920 ft 314 kts 266°
2026-05-01 11:11 55.41283 37.31493 13627 ft 319 kts 266°
2026-05-01 11:12 55.41055 37.27576 14287 ft 323 kts 266°
2026-05-01 11:12 55.40825 37.23626 14898 ft 326 kts 266°
2026-05-01 11:12 55.40593 37.19635 15537 ft 329 kts 266°
2026-05-01 11:12 55.40362 37.15650 16160 ft 332 kts 266°
2026-05-01 11:13 55.40125 37.11574 16741 ft 337 kts 268°
2026-05-01 11:13 55.40289 37.07410 16883 ft 349 kts 286°
2026-05-01 11:13 55.40939 37.03162 17029 ft 365 kts 287°
2026-05-01 11:13 55.41629 36.98798 17373 ft 374 kts 288°
2026-05-01 11:14 55.42329 36.94394 17901 ft 377 kts 288°
2026-05-01 11:14 55.43041 36.89912 18444 ft 381 kts 288°
2026-05-01 11:14 55.43753 36.85404 18918 ft 384 kts 288°
2026-05-01 11:14 55.44463 36.80851 19394 ft 386 kts 287°
2026-05-01 11:15 55.45163 36.76317 19865 ft 389 kts 287°
2026-05-01 11:15 55.45871 36.71703 20319 ft 392 kts 287°
2026-05-01 11:15 55.46588 36.67032 20771 ft 395 kts 288°
2026-05-01 11:15 55.47312 36.62317 21219 ft 398 kts 288°
2026-05-01 11:16 55.48035 36.57584 21658 ft 401 kts 288°
2026-05-01 11:16 55.48756 36.52855 22087 ft 404 kts 288°
2026-05-01 11:16 55.49492 36.48042 22510 ft 407 kts 288°
2026-05-01 11:16 55.50233 36.43191 22933 ft 410 kts 288°
2026-05-01 11:17 55.50965 36.38378 23334 ft 413 kts 288°
2026-05-01 11:17 55.51708 36.33451 23733 ft 416 kts 288°
2026-05-01 11:17 55.52449 36.28500 24067 ft 418 kts 288°
2026-05-01 11:17 55.53197 36.23487 24393 ft 421 kts 288°
2026-05-01 11:18 55.53944 36.18481 24715 ft 423 kts 288°
2026-05-01 11:18 55.54688 36.13490 25020 ft 426 kts 289°
2026-05-01 11:18 55.55444 36.08404 25337 ft 428 kts 289°
2026-05-01 11:18 55.56203 36.03296 25661 ft 431 kts 289°
2026-05-01 11:19 55.56968 35.98150 25975 ft 433 kts 289°
2026-05-01 11:19 55.57733 35.92985 26287 ft 436 kts 289°
2026-05-01 11:19 55.58488 35.87839 26593 ft 438 kts 289°
2026-05-01 11:19 55.59252 35.82591 26892 ft 440 kts 289°
2026-05-01 11:20 55.60015 35.77317 27189 ft 443 kts 289°
2026-05-01 11:20 55.60781 35.72017 27455 ft 445 kts 289°
2026-05-01 11:20 55.61545 35.66700 27728 ft 447 kts 289°
2026-05-01 11:20 55.62304 35.61410 28006 ft 449 kts 289°
2026-05-01 11:21 55.62874 35.55910 28267 ft 457 kts 281°
2026-05-01 11:21 55.62951 35.50203 28509 ft 466 kts 271°
2026-05-01 11:21 55.62651 35.44524 28743 ft 470 kts 269°
2026-05-01 11:21 55.62318 35.38721 28992 ft 473 kts 269°
2026-05-01 11:22 55.61979 35.32916 29305 ft 474 kts 269°
2026-05-01 11:22 55.61641 35.27109 29656 ft 474 kts 269°
2026-05-01 11:22 55.61304 35.21303 30007 ft 474 kts 270°
2026-05-01 11:22 55.60967 35.15555 30332 ft 474 kts 270°
2026-05-01 11:23 55.60624 35.09738 30608 ft 474 kts 270°
2026-05-01 11:23 55.60284 35.03941 30870 ft 474 kts 270°
2026-05-01 11:23 55.59943 34.98129 31149 ft 475 kts 270°
2026-05-01 11:23 55.59598 34.92309 31433 ft 475 kts 270°
2026-05-01 11:24 55.59250 34.86490 31713 ft 475 kts 269°
2026-05-01 11:24 55.58903 34.80743 31985 ft 475 kts 269°
2026-05-01 11:24 55.58188 34.69104 32557 ft 475 kts 269°
2026-05-01 11:25 55.57826 34.63304 32845 ft 475 kts 269°
2026-05-01 11:25 55.57097 34.51748 33407 ft 475 kts 269°
2026-05-01 11:25 55.56728 34.45947 33693 ft 474 kts 269°
2026-05-01 11:26 55.56355 34.40137 33981 ft 474 kts 269°
2026-05-01 11:26 55.55608 34.28620 34486 ft 474 kts 269°
2026-05-01 11:26 55.55231 34.22814 34723 ft 474 kts 269°
2026-05-01 11:27 55.54855 34.17027 34967 ft 474 kts 269°
2026-05-01 11:27 55.54471 34.11220 35182 ft 474 kts 268°
2026-05-01 11:27 55.54086 34.05512 35405 ft 473 kts 268°
2026-05-01 11:27 55.53692 33.99731 35629 ft 473 kts 268°
2026-05-01 11:28 55.53298 33.93954 35848 ft 473 kts 268°
2026-05-01 11:28 55.52907 33.88232 36058 ft 472 kts 268°
2026-05-01 11:28 55.52511 33.82457 36197 ft 473 kts 268°
2026-05-01 11:29 55.51294 33.65173 36229 ft 476 kts 264°
2026-05-01 11:30 55.48892 33.48048 36234 ft 480 kts 260°
2026-05-01 11:30 55.47229 33.36626 36237 ft 480 kts 260°
2026-05-01 11:31 55.45564 33.25256 36231 ft 481 kts 260°
2026-05-01 11:31 55.43870 33.13814 36227 ft 481 kts 260°
2026-05-01 11:32 55.42180 33.02463 36223 ft 481 kts 260°
2026-05-01 11:32 55.40478 32.91127 36223 ft 481 kts 260°
2026-05-01 11:33 55.38752 32.79703 36222 ft 482 kts 260°
2026-05-01 11:33 55.37028 32.68359 36222 ft 482 kts 260°
2026-05-01 11:34 55.35280 32.56963 36218 ft 482 kts 260°
2026-05-01 11:34 55.33512 32.45554 36221 ft 483 kts 259°
2026-05-01 11:35 55.31754 32.34224 36215 ft 483 kts 259°
2026-05-01 11:35 55.29976 32.22830 36219 ft 483 kts 259°
2026-05-01 11:36 55.28186 32.11434 36217 ft 484 kts 259°
2026-05-01 11:36 55.26392 32.00121 36222 ft 484 kts 259°
2026-05-01 11:37 55.24567 31.88720 36223 ft 484 kts 259°
2026-05-01 11:37 55.22752 31.77419 36225 ft 484 kts 259°
2026-05-01 11:38 55.21225 31.67952 36222 ft 485 kts 259°
2026-05-01 11:38 55.19370 31.56564 36231 ft 485 kts 259°
2026-05-01 11:39 55.17515 31.45259 36229 ft 485 kts 259°
2026-05-01 11:39 55.15640 31.33890 36228 ft 485 kts 259°
2026-05-01 11:40 55.13764 31.22601 36231 ft 485 kts 259°
2026-05-01 11:40 55.11861 31.11226 36225 ft 486 kts 259°
2026-05-01 11:41 55.09943 30.99959 36231 ft 488 kts 255°
2026-05-01 11:41 55.07125 30.89060 36227 ft 492 kts 249°
2026-05-01 11:42 55.04184 30.78327 36230 ft 493 kts 250°
2026-05-01 11:42 55.01197 30.67414 36246 ft 499 kts 250°
2026-05-01 11:43 54.98184 30.56480 36244 ft 500 kts 249°
2026-05-01 11:43 54.95170 30.45625 36241 ft 500 kts 249°
2026-05-01 11:44 54.90625 30.29321 36235 ft 500 kts 249°
2026-05-01 11:44 54.87563 30.18427 36234 ft 500 kts 249°
2026-05-01 11:45 54.84515 30.07618 36232 ft 500 kts 249°
2026-05-01 11:45 54.81441 29.96727 36233 ft 500 kts 249°
2026-05-01 11:46 54.78378 29.85957 36230 ft 500 kts 249°
2026-05-01 11:46 54.75276 29.75127 36223 ft 500 kts 249°
2026-05-01 11:47 54.72169 29.64319 36227 ft 501 kts 249°
2026-05-01 11:47 54.69075 29.53587 36228 ft 500 kts 249°
2026-05-01 11:48 54.65965 29.42792 36238 ft 500 kts 249°
2026-05-01 11:48 54.62977 29.32005 36234 ft 500 kts 250°
2026-05-01 11:49 54.60003 29.21146 36237 ft 500 kts 250°
2026-05-01 11:49 54.56993 29.10331 36233 ft 500 kts 249°
2026-05-01 11:50 54.53964 28.99609 36234 ft 500 kts 249°
2026-05-01 11:50 54.50912 28.88824 36237 ft 500 kts 249°
2026-05-01 11:51 54.47871 28.78053 36232 ft 500 kts 250°
2026-05-01 11:51 54.45053 28.67204 36242 ft 498 kts 252°
2026-05-01 11:52 54.42361 28.56221 36238 ft 498 kts 253°
2026-05-01 11:52 54.39639 28.45306 36239 ft 498 kts 252°
2026-05-01 11:53 54.36827 28.34399 36245 ft 499 kts 251°
2026-05-01 11:53 54.34011 28.23572 36245 ft 499 kts 251°
2026-05-01 11:54 54.31178 28.12663 36248 ft 499 kts 251°
2026-05-01 11:54 54.28355 28.01843 36248 ft 499 kts 251°
2026-05-01 11:55 54.25509 27.90983 36250 ft 499 kts 251°
2026-05-01 11:55 54.22671 27.80203 36251 ft 499 kts 251°
2026-05-01 11:56 54.21271 27.74879 36248 ft 499 kts 251°
2026-05-01 11:56 54.18417 27.64100 36252 ft 500 kts 251°
2026-05-01 11:57 54.15541 27.53327 36257 ft 500 kts 251°
2026-05-01 11:57 54.12643 27.42524 36258 ft 500 kts 251°
2026-05-01 11:58 54.09650 27.31851 36266 ft 503 kts 245°
2026-05-01 11:59 54.04442 27.16327 36269 ft 503 kts 245°
2026-05-01 11:59 54.00957 27.05996 36271 ft 503 kts 245°
2026-05-01 12:00 53.95722 26.90535 36272 ft 503 kts 245°
2026-05-01 12:01 53.90458 26.75139 36279 ft 503 kts 245°
2026-05-01 12:01 53.87609 26.64432 36274 ft 496 kts 254°
2026-05-01 12:02 53.85039 26.53640 36283 ft 496 kts 253°
2026-05-01 12:02 53.82437 26.42799 36280 ft 495 kts 253°
2026-05-01 12:03 53.79845 26.32057 36280 ft 495 kts 253°
2026-05-01 12:03 53.77231 26.21263 36277 ft 495 kts 253°
2026-05-01 12:04 53.74603 26.10494 36275 ft 495 kts 253°
2026-05-01 12:04 53.71967 25.99742 36274 ft 495 kts 253°
2026-05-01 12:05 53.69341 25.89061 36272 ft 495 kts 253°
2026-05-01 12:05 53.65384 25.73046 36280 ft 494 kts 253°
2026-05-01 12:06 53.62723 25.62324 36287 ft 494 kts 252°
2026-05-01 12:06 53.60033 25.51611 36288 ft 494 kts 252°
2026-05-01 12:07 53.57363 25.41004 36290 ft 494 kts 252°
2026-05-01 12:07 53.54664 25.30325 36295 ft 494 kts 252°
2026-05-01 12:08 53.51974 25.19722 36295 ft 494 kts 252°
2026-05-01 12:08 53.49263 25.09095 36297 ft 494 kts 252°
2026-05-01 12:09 53.46572 24.98583 36295 ft 493 kts 252°
2026-05-01 12:09 53.43834 24.87948 36303 ft 494 kts 252°
2026-05-01 12:10 53.39733 24.72143 36310 ft 494 kts 251°
2026-05-01 12:11 53.35613 24.56380 36310 ft 493 kts 251°
2026-05-01 12:11 53.32854 24.45854 36305 ft 493 kts 251°
2026-05-01 12:12 53.30076 24.35325 36306 ft 493 kts 251°
2026-05-01 12:12 53.27307 24.24913 36309 ft 493 kts 251°
2026-05-01 12:13 53.24516 24.14443 36305 ft 492 kts 251°
2026-05-01 12:13 53.21735 24.04030 36301 ft 492 kts 251°
2026-05-01 12:14 53.18925 23.93584 36301 ft 492 kts 251°
2026-05-01 12:14 53.16143 23.83237 36303 ft 492 kts 251°
2026-05-01 12:15 53.13381 23.72795 36302 ft 491 kts 251°
2026-05-01 12:15 53.10627 23.62401 36309 ft 491 kts 251°
2026-05-01 12:16 53.07833 23.51993 36310 ft 491 kts 251°
2026-05-01 12:16 53.05043 23.41683 36310 ft 491 kts 250°
2026-05-01 12:17 53.02240 23.31309 36311 ft 491 kts 251°
2026-05-01 12:17 52.99441 23.20950 36309 ft 491 kts 250°
2026-05-01 12:18 52.96634 23.10660 36312 ft 491 kts 250°
2026-05-01 12:18 52.93805 23.00391 36314 ft 491 kts 250°
2026-05-01 12:19 52.90948 22.90086 36317 ft 491 kts 250°
2026-05-01 12:19 52.88042 22.79833 36316 ft 491 kts 249°
2026-05-01 12:20 52.85596 22.71329 36318 ft 491 kts 249°
2026-05-01 12:20 52.82176 22.59465 36318 ft 491 kts 249°
2026-05-01 12:21 52.79732 22.50971 36314 ft 491 kts 249°
2026-05-01 12:21 52.76785 22.40780 36320 ft 490 kts 249°
2026-05-01 12:22 52.73906 22.30629 36317 ft 490 kts 250°
2026-05-01 12:22 52.71061 22.20419 36316 ft 489 kts 250°
2026-05-01 12:23 52.68193 22.10211 36317 ft 489 kts 250°
2026-05-01 12:23 52.65326 22.00107 36311 ft 489 kts 249°
2026-05-01 12:24 52.62440 21.90021 36310 ft 488 kts 249°
2026-05-01 12:24 52.59531 21.79890 36307 ft 488 kts 249°
2026-05-01 12:25 52.55162 21.64797 36317 ft 488 kts 249°
2026-05-01 12:26 52.52251 21.54746 36313 ft 488 kts 249°
2026-05-01 12:26 52.47849 21.39635 36315 ft 487 kts 249°
2026-05-01 12:27 52.43452 21.24612 36316 ft 487 kts 249°
2026-05-01 12:28 52.39048 21.09672 36316 ft 487 kts 248°
2026-05-01 12:29 52.34610 20.94709 36317 ft 486 kts 248°
2026-05-01 12:29 52.30164 20.79847 36318 ft 486 kts 248°
2026-05-01 12:30 52.25578 20.65090 36317 ft 489 kts 240°
2026-05-01 12:31 52.21561 20.56017 36314 ft 491 kts 237°
2026-05-01 12:31 52.17512 20.47098 36310 ft 491 kts 236°
2026-05-01 12:32 52.14054 20.37596 36305 ft 483 kts 252°
2026-05-01 12:32 52.10701 20.22253 36305 ft 480 kts 255°
2026-05-01 12:33 52.08471 20.12054 36302 ft 480 kts 255°
2026-05-01 12:33 52.06211 20.01783 36306 ft 480 kts 255°
2026-05-01 12:34 52.03961 19.91593 36306 ft 480 kts 255°
2026-05-01 12:34 52.01740 19.81355 36309 ft 480 kts 255°
2026-05-01 12:35 51.99541 19.71177 36314 ft 480 kts 255°
2026-05-01 12:35 51.97312 19.60947 36313 ft 479 kts 255°
2026-05-01 12:36 51.95088 19.50806 36313 ft 479 kts 255°
2026-05-01 12:36 51.92838 19.40607 36311 ft 479 kts 254°
2026-05-01 12:37 51.90598 19.30480 36311 ft 479 kts 254°
2026-05-01 12:37 51.88341 19.20350 36316 ft 479 kts 254°
2026-05-01 12:38 51.86062 19.10182 36315 ft 478 kts 254°
2026-05-01 12:38 51.83841 19.00088 36320 ft 478 kts 255°
2026-05-01 12:39 51.81633 18.89954 36331 ft 478 kts 255°
2026-05-01 12:39 51.79409 18.79800 36322 ft 477 kts 254°
2026-05-01 12:40 51.77185 18.69735 36319 ft 477 kts 254°
2026-05-01 12:40 51.74934 18.59659 36325 ft 477 kts 254°
2026-05-01 12:41 51.72689 18.49628 36326 ft 477 kts 254°
2026-05-01 12:41 51.70429 18.39542 36327 ft 476 kts 253°
2026-05-01 12:42 51.68170 18.29548 36324 ft 476 kts 253°
2026-05-01 12:42 51.65890 18.19499 36325 ft 476 kts 253°
2026-05-01 12:43 51.63619 18.09518 36331 ft 476 kts 253°
2026-05-01 12:43 51.61331 17.99513 36336 ft 475 kts 253°
2026-05-01 12:44 51.59041 17.89598 36332 ft 475 kts 253°
2026-05-01 12:45 51.54435 17.69687 36338 ft 475 kts 253°
2026-05-01 12:45 51.52004 17.59261 36338 ft 474 kts 253°
2026-05-01 12:46 51.49796 17.49858 36340 ft 474 kts 253°
2026-05-01 12:46 51.47475 17.40000 36344 ft 474 kts 252°
2026-05-01 12:47 51.45136 17.30110 36344 ft 474 kts 252°
2026-05-01 12:47 51.42792 17.20225 36344 ft 473 kts 252°
2026-05-01 12:48 51.41225 17.13629 36344 ft 473 kts 252°
2026-05-01 12:48 51.38090 17.00561 36348 ft 473 kts 252°
2026-05-01 12:49 51.35714 16.90694 36352 ft 473 kts 252°
2026-05-01 12:49 51.33355 16.80932 36352 ft 473 kts 252°
2026-05-01 12:50 51.30968 16.71111 36347 ft 472 kts 252°
2026-05-01 12:50 51.28584 16.61360 36352 ft 472 kts 252°
2026-05-01 12:51 51.26184 16.51578 36350 ft 472 kts 252°
2026-05-01 12:52 51.22596 16.36981 36350 ft 472 kts 251°
2026-05-01 12:52 51.18970 16.22393 36354 ft 472 kts 251°
2026-05-01 12:53 51.15334 16.07841 36362 ft 471 kts 251°
2026-05-01 12:54 51.12893 15.98129 36365 ft 471 kts 251°
2026-05-01 12:54 51.09230 15.83620 36371 ft 471 kts 251°
2026-05-01 12:55 51.05568 15.69177 36367 ft 470 kts 251°
2026-05-01 12:56 51.03100 15.59531 36374 ft 470 kts 250°
2026-05-01 12:56 51.00645 15.49994 36371 ft 469 kts 250°
2026-05-01 12:57 50.98163 15.40357 36375 ft 469 kts 250°
2026-05-01 12:57 50.93951 15.26361 36383 ft 473 kts 236°
2026-05-01 12:58 50.90117 15.17955 36387 ft 473 kts 236°
2026-05-01 12:59 50.84332 15.05259 36385 ft 473 kts 236°
2026-05-01 12:59 50.78570 14.92667 36396 ft 473 kts 236°
2026-05-01 13:00 50.72751 14.80045 36386 ft 473 kts 236°
2026-05-01 13:01 50.66940 14.67523 36387 ft 473 kts 235°
2026-05-01 13:02 50.61114 14.55020 36389 ft 473 kts 235°
2026-05-01 13:07 50.36184 13.57278 36396 ft 465 kts 251°
2026-05-01 13:07 50.35012 13.52549 36395 ft 465 kts 251°
2026-05-01 13:08 50.32666 13.43095 36395 ft 465 kts 250°
2026-05-01 13:08 50.30308 13.33655 36400 ft 465 kts 250°
2026-05-01 13:09 50.27955 13.24278 36407 ft 465 kts 250°
2026-05-01 13:09 50.25585 13.14857 36408 ft 464 kts 250°
2026-05-01 13:10 50.23224 13.05525 36415 ft 464 kts 250°
2026-05-01 13:10 50.20835 12.96148 36408 ft 464 kts 250°
2026-05-01 13:11 50.18436 12.86768 36413 ft 464 kts 250°
2026-05-01 13:11 50.16046 12.77452 36411 ft 464 kts 250°
2026-05-01 13:12 50.13645 12.68084 36413 ft 464 kts 250°
2026-05-01 13:12 50.11248 12.58795 36408 ft 463 kts 250°
2026-05-01 13:13 50.08831 12.49486 36403 ft 463 kts 249°
2026-05-01 13:13 50.06410 12.40188 36404 ft 463 kts 250°
2026-05-01 13:14 50.04043 12.30862 36407 ft 462 kts 250°
2026-05-01 13:14 50.01752 12.21581 36405 ft 462 kts 250°
2026-05-01 13:15 49.99432 12.12250 36411 ft 462 kts 250°
2026-05-01 13:15 49.97089 12.02982 36403 ft 461 kts 250°
2026-05-01 13:16 49.94728 11.93716 36411 ft 461 kts 250°
2026-05-01 13:16 49.92382 11.84432 36406 ft 460 kts 250°
2026-05-01 13:17 49.87738 11.65942 36396 ft 460 kts 251°
2026-05-01 13:18 49.84442 11.52066 36389 ft 459 kts 251°
2026-05-01 13:18 49.82109 11.42838 36374 ft 459 kts 249°
2026-05-01 13:19 49.79666 11.33750 36385 ft 459 kts 249°
2026-05-01 13:20 49.75430 11.20444 36367 ft 461 kts 233°
2026-05-01 13:20 49.71082 11.13131 36369 ft 462 kts 227°
2026-05-01 13:21 49.64371 11.02466 36361 ft 462 kts 227°
2026-05-01 13:21 49.59918 10.95372 36382 ft 462 kts 227°
2026-05-01 13:22 49.55428 10.88233 36378 ft 462 kts 227°
2026-05-01 13:22 49.50940 10.81133 36372 ft 462 kts 226°
2026-05-01 13:23 49.46476 10.74098 36371 ft 462 kts 226°
2026-05-01 13:23 49.41978 10.67030 36372 ft 461 kts 227°
2026-05-01 13:24 49.37514 10.59914 36371 ft 461 kts 227°
2026-05-01 13:25 49.30868 10.49262 36368 ft 462 kts 226°
2026-05-01 13:25 49.26326 10.42359 36370 ft 462 kts 225°
2026-05-01 13:26 49.21727 10.35434 36371 ft 462 kts 226°
2026-05-01 13:26 49.17248 10.28516 36367 ft 462 kts 226°
2026-05-01 13:27 49.12923 10.21296 36358 ft 461 kts 233°
2026-05-01 13:27 49.06889 10.09780 36351 ft 461 kts 232°
2026-05-01 13:28 49.00843 9.98419 36350 ft 461 kts 232°
2026-05-01 13:29 48.92779 9.83256 36350 ft 461 kts 232°
2026-05-01 13:31 48.80644 9.60630 36417 ft 457 kts 232°
2026-05-01 13:31 48.74642 9.49516 36596 ft 455 kts 232°
2026-05-01 13:32 48.70618 9.42072 36283 ft 455 kts 232°
2026-05-01 13:33 48.60552 9.23468 36300 ft 457 kts 234°
2026-05-01 13:34 48.53277 9.07830 36300 ft 456 kts 237°
2026-05-01 13:35 48.47783 8.96077 36299 ft 456 kts 235°
2026-05-01 13:36 48.42221 8.84485 36295 ft 456 kts 235°
2026-05-01 13:36 48.36671 8.72894 36297 ft 455 kts 235°
2026-05-01 13:37 48.32990 8.65215 36295 ft 455 kts 235°
2026-05-01 13:37 48.29269 8.57488 36293 ft 454 kts 235°
2026-05-01 13:38 48.23707 8.45945 36290 ft 453 kts 235°
2026-05-01 13:39 48.20018 8.38341 36291 ft 453 kts 234°
2026-05-01 13:39 48.15683 8.31484 36293 ft 453 kts 218°
2026-05-01 13:40 48.10290 8.26678 36292 ft 453 kts 209°
2026-05-01 13:40 48.04763 8.22210 36288 ft 453 kts 209°
2026-05-01 13:41 47.99212 8.17704 36293 ft 453 kts 209°
2026-05-01 13:41 47.93701 8.13237 36293 ft 452 kts 209°
2026-05-01 13:42 47.88182 8.08789 36294 ft 452 kts 209°
2026-05-01 13:42 47.82641 8.04344 36291 ft 451 kts 209°
2026-05-01 13:43 47.77150 7.99951 36291 ft 451 kts 209°
2026-05-01 13:43 47.71639 7.95540 36291 ft 451 kts 209°
2026-05-01 13:44 47.66084 7.91114 36289 ft 450 kts 208°
2026-05-01 13:44 47.60551 7.86718 36287 ft 450 kts 208°
2026-05-01 13:45 47.55016 7.82320 36287 ft 450 kts 208°
2026-05-01 13:45 47.49512 7.77952 36288 ft 450 kts 208°
2026-05-01 13:46 47.45569 7.74841 36286 ft 448 kts 208°
2026-05-01 13:46 47.40185 7.70603 36233 ft 438 kts 208°
2026-05-01 13:47 47.34780 7.66339 36235 ft 441 kts 208°
2026-05-01 13:47 47.32126 7.64017 36238 ft 442 kts 216°
2026-05-01 13:47 47.27707 7.57843 36242 ft 442 kts 232°
2026-05-01 13:48 47.25797 7.54260 36246 ft 443 kts 232°
2026-05-01 13:48 47.21972 7.47153 36250 ft 445 kts 232°
2026-05-01 13:49 47.18106 7.40031 36260 ft 445 kts 231°
2026-05-01 13:49 47.14257 7.32928 36231 ft 446 kts 232°
2026-05-01 13:49 47.12316 7.29348 35970 ft 446 kts 231°
2026-05-01 13:50 47.11034 7.26986 35560 ft 447 kts 231°
2026-05-01 13:50 47.09099 7.23420 34680 ft 451 kts 231°
2026-05-01 13:50 47.07119 7.19774 33729 ft 455 kts 231°
2026-05-01 13:50 47.05129 7.16112 32706 ft 459 kts 231°
2026-05-01 13:51 47.03149 7.12471 31722 ft 463 kts 231°
2026-05-01 13:51 47.01123 7.08758 30651 ft 468 kts 231°
2026-05-01 13:51 46.99062 7.04998 29366 ft 474 kts 231°
2026-05-01 13:51 46.96979 7.01200 28192 ft 477 kts 231°
2026-05-01 13:52 46.94908 6.97429 27422 ft 472 kts 231°
2026-05-01 13:52 46.92862 6.93709 26693 ft 466 kts 231°
2026-05-01 13:52 46.90831 6.90122 25955 ft 460 kts 226°
2026-05-01 13:52 46.88629 6.86756 25234 ft 455 kts 225°
2026-05-01 13:53 46.86442 6.83432 24522 ft 451 kts 225°
2026-05-01 13:53 46.82129 6.76897 23062 ft 443 kts 225°
2026-05-01 13:53 46.79994 6.73677 22425 ft 437 kts 225°
2026-05-01 13:54 46.77883 6.70494 21790 ft 432 kts 225°
2026-05-01 13:54 46.75822 6.67385 21195 ft 427 kts 225°
2026-05-01 13:54 46.73769 6.64288 20627 ft 422 kts 225°
2026-05-01 13:54 46.71745 6.61232 20059 ft 416 kts 225°
2026-05-01 13:55 46.69744 6.58218 19540 ft 411 kts 225°
2026-05-01 13:55 46.67756 6.55228 19014 ft 405 kts 225°
2026-05-01 13:55 46.65804 6.52292 18520 ft 401 kts 225°
2026-05-01 13:55 46.63898 6.49431 17971 ft 396 kts 225°
2026-05-01 13:56 46.61994 6.46581 17468 ft 390 kts 225°
2026-05-01 13:56 46.60103 6.43757 16969 ft 385 kts 224°
2026-05-01 13:56 46.58240 6.40980 16458 ft 382 kts 224°
2026-05-01 13:56 46.56385 6.38221 15954 ft 379 kts 224°
2026-05-01 13:57 46.54564 6.35513 15427 ft 377 kts 224°
2026-05-01 13:57 46.52733 6.32789 15006 ft 375 kts 224°
2026-05-01 13:57 46.50902 6.30076 14689 ft 374 kts 224°
2026-05-01 13:57 46.49081 6.27384 14347 ft 372 kts 224°
2026-05-01 13:58 46.47288 6.24741 13997 ft 370 kts 224°
2026-05-01 13:58 46.45483 6.22084 13641 ft 369 kts 224°
2026-05-01 13:58 46.43681 6.19435 13259 ft 367 kts 224°
2026-05-01 13:58 46.41885 6.16794 12695 ft 365 kts 224°
2026-05-01 13:59 46.40114 6.14187 12362 ft 362 kts 224°
2026-05-01 13:59 46.38356 6.11604 12037 ft 359 kts 224°
2026-05-01 13:59 46.36618 6.09057 11700 ft 358 kts 224°
2026-05-01 13:59 46.34876 6.06505 11386 ft 356 kts 224°
2026-05-01 14:00 46.33134 6.03952 11063 ft 354 kts 224°
2026-05-01 14:00 46.31405 6.01418 10808 ft 345 kts 224°
2026-05-01 14:00 46.29755 5.99001 10667 ft 331 kts 224°
2026-05-01 14:00 46.28186 5.96709 10564 ft 319 kts 224°
2026-05-01 14:01 46.26646 5.94468 10438 ft 310 kts 224°
2026-05-01 14:01 46.25141 5.92279 10314 ft 302 kts 224°
2026-05-01 14:01 46.23681 5.90152 10177 ft 292 kts 224°
2026-05-01 14:01 46.22276 5.88106 9954 ft 286 kts 224°
2026-05-01 14:02 46.20878 5.86072 9793 ft 286 kts 224°
2026-05-01 14:02 46.19475 5.84035 9530 ft 283 kts 224°
2026-05-01 14:02 46.18083 5.82017 9276 ft 282 kts 224°
2026-05-01 14:02 46.16716 5.80036 9027 ft 281 kts 224°
2026-05-01 14:03 46.15331 5.78029 8756 ft 280 kts 224°
2026-05-01 14:03 46.13970 5.76061 8584 ft 270 kts 224°
2026-05-01 14:03 46.12673 5.74187 8445 ft 260 kts 224°
2026-05-01 14:03 46.11383 5.72476 8329 ft 250 kts 212°
2026-05-01 14:04 46.09822 5.71530 8204 ft 239 kts 190°
2026-05-01 14:04 46.08192 5.71577 8067 ft 233 kts 166°
2026-05-01 14:04 46.06733 5.72549 7864 ft 230 kts 142°
2026-05-01 14:04 46.05661 5.74167 7727 ft 223 kts 130°
2026-05-01 14:05 46.04686 5.75863 7603 ft 217 kts 130°
2026-05-01 14:05 46.03752 5.77502 7503 ft 205 kts 126°
2026-05-01 14:05 46.03279 5.79356 7383 ft 195 kts 92°
2026-05-01 14:05 46.03579 5.81186 7266 ft 185 kts 60°
2026-05-01 14:06 46.04401 5.82548 7140 ft 177 kts 45°
2026-05-01 14:06 46.05255 5.83793 7029 ft 171 kts 46°
2026-05-01 14:06 46.06054 5.84975 6894 ft 158 kts 46°
2026-05-01 14:06 46.06814 5.86088 6675 ft 154 kts 45°
2026-05-01 14:07 46.07554 5.87167 6400 ft 153 kts 45°
2026-05-01 14:07 46.08298 5.88251 6119 ft 152 kts 45°
2026-05-01 14:07 46.09037 5.89325 6007 ft 151 kts 46°
2026-05-01 14:08 46.10558 5.91476 5494 ft 152 kts 45°
2026-05-01 14:08 46.11297 5.92577 5207 ft 154 kts 48°
2026-05-01 14:08 46.12024 5.93706 4812 ft 159 kts 47°
2026-05-01 14:08 46.12802 5.94877 4390 ft 163 kts 46°
2026-05-01 14:09 46.13608 5.96034 4049 ft 163 kts 45°
2026-05-01 14:09 46.14409 5.97148 3801 ft 158 kts 44°
2026-05-01 14:09 46.15185 5.98236 3541 ft 157 kts 45°
2026-05-01 14:09 46.15949 5.99369 3241 ft 155 kts 47°
2026-05-01 14:10 46.16685 6.00471 2985 ft 149 kts 46°
2026-05-01 14:10 46.17390 6.01533 2755 ft 144 kts 46°
2026-05-01 14:10 46.18090 6.02558 2549 ft 142 kts 46°
2026-05-01 14:10 46.18788 6.03540 2364 ft 140 kts 46°
2026-05-01 14:11 46.19488 6.04522 2167 ft 138 kts 46°
2026-05-01 14:11 46.20819 6.06543 1971 ft 138 kts 45°
2026-05-01 14:11 46.21497 6.07496 1871 ft 140 kts 47°
2026-05-01 14:12 46.22105 6.08391 1671 ft 139 kts 47°
2026-05-01 14:12 46.22721 6.09307 1484 ft 139 kts 43°
2026-05-01 14:12 46.23382 6.10263 1412 ft 128 kts 46°
2026-05-01 14:12 46.23935 6.11084 1376 ft 96 kts 44°
2026-05-01 14:13 46.24282 6.11593 1373 ft 46 kts 45°
2026-05-01 14:13 46.24376 6.11735 1372 ft 13 kts 49°
2026-05-01 14:13 46.24379 6.11741 1372 ft 10 kts 51°